Powrót do katalogu

SL-8 DEB

AktywnyLEO
NORAD 21172·DEBRIS·🇷🇺 Russia

Wystrzelony Feb 12, 1991 z Plesetsk Cosmodrome

Loading…

Następne Przeloty (najbliższe 24 godziny)

TLE

ŚwieżeSource: Space-Track

Epoka: Sep 14, 2026, 12:57 UTC

1 21172U 91009AK  26257.53966620 -.00000015  00000-0  34396-5 0  9998
2 21172  74.0352 189.6504 0134036 236.2493 237.6646 12.27725885592215

Śledź SL-8 DEB w czasie rzeczywistym z AllMySat

Download on the App Store